Location: Poughquag
(41.6090°N, 73.6820°W)
Time: 12:06:36
(UTC-04:00)

Transit 4A - Pass Details

Date: 01 June 2020
Orbit: 866 x 978 km, 66.8° (Epoch: 06 July)

Event Time Altitude Azimuth Distance (km) Brightness Sun altitude
Rises 01:39:04 0° 195° (SSW) 3,433 - -25.4°
Reaches altitude 10° 01:41:33 10° 191° (SSW) 2,501 - -25.3°
Exits shadow 01:46:29 53° 143° (SE) 1,060 7.9 -25.1°
Maximum altitude 01:47:11 57° 114° (ESE) 1,023 8.0 -25.0°
Drops below altitude 10° 01:52:56 10° 38° (NE) 2,553 11.1 -24.8°
Sets 01:55:29 0° 34° (NE) 3,511 12.1 -24.6°
